[Iaude] MPEC J236: 2024 JH8 [a=1.51,e=0.34,i=9.6,H=23.8]

mpec at cfa.harvard.edu mpec at cfa.harvard.edu
Thu May 9 19:28:21 EDT 2024


M.P.E.C. 2024-J236                                  Issued 2024 May 9, 23:26 UT

     The Minor Planet Electronic Circulars contain information on unusual
         minor planets, routine data on comets and natural satellites,
         and occasional editorial announcements.  They are published
    on behalf of Division F of the International Astronomical Union by the
          Minor Planet Center, Smithsonian Astrophysical Observatory,
                          Cambridge, MA 02138, U.S.A.
			  
             Prepared using the Tamkin Foundation Computer Network

                              MPC at CFA.HARVARD.EDU
            URL https://www.minorplanetcenter.net/    ISSN 1523-6714

                                    2024 JH8                                    


Observations:
     K24J08H* C2024 05 08.48355914 48 43.001+24 47 29.00         21.63wXEJ236F52
     K24J08H  C2024 05 08.49673014 48 42.514+24 46 05.38         20.87wXEJ236F52
     K24J08H  C2024 05 08.50990614 48 42.040+24 44 41.78         21.76wXEJ236F52
     K24J08H  C2024 05 08.52306914 48 41.593+24 43 18.19         21.30wXEJ236F52
     K24J08H  C2024 05 08.58459614 48 39.687+24 36 46.25         20.07GVEJ236F51
     K24J08H 1C2024 05 08.92346 14 48 38.53 +24 01 10.0          22.0 VXEJ236033
     K24J08H 1C2024 05 08.92563 14 48 38.46 +24 00 56.6          22.1 VXEJ236033
     K24J08H 1C2024 05 08.92779 14 48 38.40 +24 00 43.1          21.6 VXEJ236033
     K24J08H 1C2024 05 08.92996 14 48 38.34 +24 00 29.8          21.6 VXEJ236033
     K24J08H 1C2024 05 08.93229 14 48 38.26 +24 00 15.0          21.7 VXEJ236033
     K24J08H 7C2024 05 09.03059914 48 35.824+23 50 15.32         22.1 GVEJ236Z84
     K24J08H 7C2024 05 09.03498414 48 35.625+23 49 47.43         21.8 GVEJ236Z84
     K24J08H 1C2024 05 09.91529 14 48 25.13 +22 18 59.2          21.9 VXEJ236033
     K24J08H 1C2024 05 09.91787 14 48 25.06 +22 18 43.5          21.6 VXEJ236033
     K24J08H 1C2024 05 09.92303 14 48 24.91 +22 18 11.6          21.7 VXEJ236033
     K24J08H 1C2024 05 09.92615 14 48 24.81 +22 17 52.9          21.8 VXEJ236033

Observer details:
033 Karl Schwarzschild Observatory, Tautenburg.  Observers S. Melnikov, C.
    Hogner, F. Ludwig, M. Hartmann, B. Stecklum.  Measurer B. Stecklum.
    1.34-m f/3 Schmidt + CCD.
F51 Pan-STARRS 1, Haleakala.  Observers J. Herman, T. Lowe, P. Minguez, A.
    Schultz, I. Smith.  Measurers K. Chambers, T. de Boer, J. Fairlamb, H.
    Gao, M. Huber, C.-C. Lin, E. Magnier, Y. Ramanjooloo, R. Wainscoat, R.
    Weryk.  1.8-m Ritchey-Chretien + CCD.
F52 Pan-STARRS 2, Haleakala.  Observers J. Herman, T. Lowe, P. Minguez, A.
    Schultz, I. Smith.  Measurers K. Chambers, T. de Boer, J. Fairlamb, H.
    Gao, M. Huber, C.-C. Lin, E. Magnier, Y. Ramanjooloo, R. Wainscoat, R.
    Weryk.  1.8-m Ritchey-Chretien + CCD.
Z84 Calar Alto-Schmidt.  Observers R. Kresken, F. Ocana, M. Micheli, L.
    Conversi.  Measurers F. Ocana, M. Micheli.  0.8-m f/3 Schmidt + CCD.

Orbital elements:
2024 JH8                                                 Earth MOID = 0.1407 AU
Epoch 2024 Mar. 31.0 TT = JDT 2460400.5                 MPC                     
M   8.54550              (2000.0)            P               Q                  
n   0.53115413     Peri.   91.41599     -0.96680115     -0.19722618             
a   1.5100419      Node    77.22889     +0.11156205     -0.89781542             
e   0.3378788      Incl.    9.58985     +0.22989006     -0.39373762             
P   1.86           H   23.86          G   0.15           U   9                  
Residuals in seconds of arc
240508 F52  0.1-  0.2+    240508 033  0.4-  0.1+    240509 033  0.2-  0.0
240508 F52  0.1-  0.0     240508 033  0.3-  0.0     240509 033  0.1-  0.1+
240508 F52  0.1-  0.0     240508 033  0.2-  0.2+    240509 033  0.2-  0.3-
240508 F52  0.0   0.0     240508 033  0.3-  0.1-    240509 033  0.4-  0.1+
240508 F51  0.0   0.1-    240509 Z84  0.5+  0.2+
240508 033  0.3-  0.0     240509 Z84  0.2-  0.2-

Ephemeris:
2024 JH8                 a,e,i = 1.51, 0.34, 10                  q = 0.9998
Date    TT    R. A. (2000) Decl.     Delta      r    Elong.  Phase     V
2024 04 09    15 00 25.4 +74 26 18   0.1558  1.0304    96.3    75.1    22.5
...
2024 04 24    14 53 47.6 +51 07 41   0.1430  1.0744   115.2    57.9    21.9
...
2024 05 02    14 50 43.4 +36 30 32   0.1463  1.1040   128.0    46.0    21.6
...
2024 05 08    14 48 51.8 +25 38 17   0.1555  1.1284   137.2    37.4    21.6
2024 05 09    14 48 37.0 +23 53 44   0.1577  1.1326   138.6    36.1    21.6
2024 05 10    14 48 23.5 +22 10 52   0.1600  1.1368   139.9    34.9    21.6
...
2024 05 16    14 47 34.7 +12 36 52   0.1776  1.1632   146.5    28.7    21.7
...
2024 05 24    14 48 04.3 +02 05 47   0.2102  1.2002   150.6    24.5    22.0
...
2024 06 08    14 54 04.9 -11 16 15   0.2963  1.2732   146.7    25.9    22.9

A. U. Tomatic                (C) Copyright 2024 MPC           M.P.E.C. 2024-J236





More information about the Iaude mailing list